Location: Newark
(25.6108°S, 54.5803°W)
Time: 08:03:50
(UTC+00:00)

Tiros 1 - Pass Details

Date: 04 November 2020
Orbit: 630 x 664 km, 48.4° (Epoch: 29 November)

Event Time Altitude Azimuth Distance (km) Brightness Sun altitude
Rises 23:53:53 0° 230° (SW) 3,013 12.0 -24.8°
Reaches altitude 10° 23:56:16 10° 232° (SW) 2,094 10.8 -25.3°
Enters shadow 00:00:54 63° 302° (WNW) 741 7.4 -26.1°
Maximum altitude 00:01:03 63° 313° (NW) 739 - -26.2°
Drops below altitude 10° 00:05:46 10° 34° (NNE) 2,061 - -27.0°
Sets 00:08:06 0° 37° (NE) 2,961 - -27.5°
